Weather History for Buffalo, WY

Change the Weather History Date:

Saturday, October 20, 2012

  Actual Average Record
Temperature  
Mean Temperature 57 °F 45 °F  
Max Temperature 70 °F 56 °F 79 °F (2014)
Min Temperature 43 °F 33 °F 30 °F (2006)
Degree Days  
Heating Degree Days 8 20  
Month to date heating degree days 348  
Since 1 July heating degree days 662  
Cooling Degree Days 0 0  
Month to date cooling degree days 0  
Year to date cooling degree days 491  
Growing Degree Days 7 (Base 50)    
Moisture  
Dew Point 31 °F    
Average Humidity 40    
Maximum Humidity 86    
Minimum Humidity 21    
Precipitation  
Precipitation 0.00 in 0.02 in 0.75 in (2007)
Month to date precipitation 0.75  
Year to date precipitation 12.33  
Sea Level Pressure  
Sea Level Pressure 29.57 in    
Wind  
Wind Speed 9 mph (NW)    
Max Wind Speed 22 mph    
Max Gust Speed 30 mph    
Visibility 10 miles    
Events      
T = Trace of Precipitation, MM = Missing Value Source: NWS Daily Summary

Daily Weather History Graph

Daily Weather History Graph

Search for Another Location

Airport:

Trip Planner

Search our weather history database for the weather conditions in past years. The results will help you decide how hot, cold, wet, or windy it might be!

Date:

Astronomy

Oct. 20, 2012 Rise Set
Actual Time 7:28 AM MDT 6:13 PM MDT
Civil Twilight 6:59 AM MDT 6:42 PM MDT
Nautical Twilight 6:25 AM MDT 7:16 PM MDT
Astronomical Twilight 5:52 AM MDT 7:50 PM MDT
Moon 1:13 PM MDT (10/20) 10:56 PM MDT (10/20)
Length of Visible Light 11h 43m
Length of Day
10h 44m
Waxing Crescent, 35% of the Moon is Illuminated
Oct 20
Waxing Crescent
Oct 21
First Quarter
Oct 29
Full
Nov 6
Last Quarter
Nov 13
New

Hourly Weather History & Observations

Time (MDT) Temp. Windchill Dew Point Humidity Pressure Visibility Wind Dir Wind Speed Gust Speed Precip Events Conditions
12:53 AM 54.0 °F - 26.1 °F 34% 29.58 in 10.0 mi East 5.8 mph - N/A   Clear
1:53 AM 51.1 °F - 27.0 °F 39% 29.60 in 10.0 mi WSW 8.1 mph - N/A   Clear
2:53 AM 48.9 °F - 28.0 °F 44% 29.60 in 10.0 mi WSW 9.2 mph - N/A   Clear
3:53 AM 55.0 °F - 25.0 °F 31% 29.58 in 10.0 mi Variable 3.5 mph - N/A   Clear
4:53 AM 52.0 °F - 27.0 °F 38% 29.58 in 10.0 mi SW 4.6 mph - N/A   Clear
5:53 AM 52.0 °F - 26.1 °F 37% 29.58 in 10.0 mi South 6.9 mph - N/A   Clear
6:53 AM 50.0 °F - 26.1 °F 39% 29.58 in 10.0 mi Variable 3.5 mph - N/A   Clear
7:53 AM 52.0 °F - 28.0 °F 40% 29.56 in 10.0 mi Calm Calm - N/A   Overcast
8:53 AM 61.0 °F - 28.9 °F 30% 29.53 in 10.0 mi South 15.0 mph 19.6 mph N/A   Mostly Cloudy
9:53 AM 64.0 °F - 28.9 °F 27% 29.50 in 10.0 mi South 21.9 mph 28.8 mph N/A   Clear
10:29 AM 68.0 °F - 28.4 °F 23% 29.63 in 10.0 mi WSW 19.6 mph 26.5 mph N/A   Clear
10:53 AM 69.1 °F - 27.0 °F 21% 29.48 in 10.0 mi SW 12.7 mph 25.3 mph N/A   Clear
12:07 PM 66.2 °F - 32.0 °F 28% 29.63 in 10.0 mi North 18.4 mph 26.5 mph N/A   Partly Cloudy
12:53 PM 62.1 °F - 32.0 °F 32% 29.51 in 10.0 mi NNW 19.6 mph 26.5 mph N/A   Clear
1:53 PM 62.1 °F - 30.9 °F 31% 29.51 in 10.0 mi NW 10.4 mph 18.4 mph N/A   Scattered Clouds
2:53 PM 64.9 °F - 32.0 °F 29% 29.48 in 10.0 mi North 10.4 mph - N/A   Scattered Clouds
3:53 PM 64.9 °F - 30.9 °F 28% 29.48 in 10.0 mi North 8.1 mph - N/A   Clear
4:53 PM 61.0 °F - 32.0 °F 34% 29.49 in 10.0 mi NNW 5.8 mph - N/A   Clear
5:53 PM 57.0 °F - 33.1 °F 40% 29.53 in 10.0 mi North 3.5 mph - N/A   Mostly Cloudy
6:53 PM 51.1 °F - 32.0 °F 48% 29.57 in 10.0 mi Variable 4.6 mph - N/A   Clear
7:53 PM 52.0 °F - 33.1 °F 49% 29.59 in 10.0 mi NNW 6.9 mph - N/A   Partly Cloudy
8:53 PM 51.1 °F - 33.1 °F 50% 29.61 in 10.0 mi NNW 15.0 mph 23.0 mph N/A   Clear
9:53 PM 46.0 °F 40.2 °F 37.9 °F 73% 29.65 in 10.0 mi NNW 12.7 mph 25.3 mph N/A   Clear
10:53 PM 45.0 °F 37.1 °F 39.0 °F 80% 29.66 in 10.0 mi NNW 19.6 mph 29.9 mph N/A   Clear
11:53 PM 43.0 °F 36.0 °F 39.0 °F 86% 29.70 in 10.0 mi NNW 13.8 mph 26.5 mph N/A   Partly Cloudy